Pierre, SD

10:51 PM CDT on May 29, 2017 (GMT -0500)
Pierre Regional

Weather History for KPIR - May, 2013

Change the Weather History Date:

Sunday, May 5, 2013

  Actual Average Record
Temperature  
Mean Temperature 47 °F 55 °F  
Max Temperature 62 °F 67 °F 97 °F (2000)
Min Temperature 31 °F 42 °F 22 °F (1944)
Degree Days  
Heating Degree Days 18 11  
Month to date heating degree days 116 58  
Since 1 July heating degree days 7459 7048  
Cooling Degree Days 0 1  
Month to date cooling degree days 0 3  
Year to date cooling degree days 0 7  
Moisture  
Dew Point 28 °F    
Average Humidity 54    
Maximum Humidity 79    
Minimum Humidity 29    
Precipitation  
Precipitation 0.00 in 0.09 in 1.85 in (1999)
Month to date precipitation 0.00 0.44  
Year to date precipitation 4.69 4.49  
Sea Level Pressure  
Sea Level Pressure 30.21 in    
Wind  
Wind Speed 6 mph (North)    
Max Wind Speed 13 mph    
Max Gust Speed 28 mph    
Visibility 10 miles    
Events      
T = Trace of Precipitation, MM = Missing Value Source: NWS Daily Summary

Daily Weather History Graph

Daily Weather History Graph

Search for Another Location

Airport or City:

Trip Planner

Search our weather history database for the weather conditions in past years. The results will help you decide how hot, cold, wet, or windy it might be!

Date:

Astronomy

May. 05, 2013 Rise Set
Actual Time 6:25 AM CDT 8:50 PM CDT
Civil Twilight 5:53 AM CDT 9:23 PM CDT
Nautical Twilight 5:13 AM CDT 10:03 PM CDT
Astronomical Twilight 4:27 AM CDT 10:49 PM CDT
Moon 4:07 AM CDT (5/5) 4:43 PM CDT (5/5)
Length of Visible Light 15h 29m
Length of Day
14h 24m
Waning Crescent, 18% of the Moon is Illuminated
May 5
Waning Crescent
May 9
New
May 17
First Quarter
May 24
Full
May 31
Last Quarter

Hourly Weather History & Observations

Time (CDT) Temp. Windchill Dew Point Humidity Pressure Visibility Wind Dir Wind Speed Gust Speed Precip Events Conditions
12:53 AM 41.0 °F 38.0 °F 24.1 °F 51% 30.27 in 10.0 mi NNE 4.6 mph - N/A   Scattered Clouds
1:53 AM 42.1 °F - 24.1 °F 49% 30.26 in 10.0 mi Calm Calm - N/A   Mostly Cloudy
2:53 AM 39.0 °F 35.7 °F 27.0 °F 62% 30.26 in 10.0 mi NW 4.6 mph - N/A   Mostly Cloudy
3:53 AM 37.9 °F 32.7 °F 25.0 °F 60% 30.26 in 10.0 mi NW 6.9 mph - N/A   Mostly Cloudy
4:53 AM 34.0 °F 27.2 °F 25.0 °F 70% 30.26 in 10.0 mi NW 8.1 mph - N/A   Scattered Clouds
5:53 AM 33.1 °F 26.1 °F 25.0 °F 72% 30.25 in 10.0 mi NW 8.1 mph - N/A   Clear
6:53 AM 30.9 °F - 25.0 °F 79% 30.27 in 10.0 mi Calm Calm - N/A   Clear
7:53 AM 37.0 °F 34.5 °F 27.0 °F 67% 30.27 in 10.0 mi NNW 3.5 mph - N/A   Clear
8:53 AM 43.0 °F 38.2 °F 28.0 °F 56% 30.27 in 10.0 mi NNW 8.1 mph - N/A   Mostly Cloudy
9:53 AM 50.0 °F - 27.0 °F 41% 30.26 in 10.0 mi North 8.1 mph - N/A   Scattered Clouds
10:53 AM 53.1 °F - 28.0 °F 38% 30.25 in 10.0 mi NE 5.8 mph - N/A   Clear
11:53 AM 54.0 °F - 27.0 °F 35% 30.24 in 10.0 mi Variable 5.8 mph - N/A   Clear
1:53 PM 57.9 °F - 26.1 °F 30% 30.20 in 10.0 mi Variable 3.5 mph - N/A   Overcast
2:53 PM 60.1 °F - 28.0 °F 30% 30.17 in 10.0 mi North 5.8 mph - N/A   Clear
3:53 PM 62.1 °F - 30.0 °F 30% 30.16 in 10.0 mi North 10.4 mph - N/A   Clear
4:53 PM 60.1 °F - 30.0 °F 32% 30.15 in 10.0 mi NNW 6.9 mph - N/A   Clear
5:53 PM 61.0 °F - 30.0 °F 31% 30.14 in 10.0 mi NW 9.2 mph - N/A   Clear
7:53 PM 57.9 °F - 28.0 °F 32% 30.12 in 10.0 mi WNW 8.1 mph - N/A   Clear
8:53 PM 53.1 °F - 32.0 °F 45% 30.13 in 10.0 mi East 5.8 mph - N/A   Clear
9:53 PM 46.0 °F 42.5 °F 32.0 °F 58% 30.14 in 10.0 mi ENE 6.9 mph - N/A   Clear
10:53 PM 43.0 °F 39.5 °F 34.0 °F 71% 30.15 in 10.0 mi East 5.8 mph - N/A   Partly Cloudy
11:53 PM 39.9 °F 37.8 °F 33.1 °F 77% 30.15 in 10.0 mi SE 3.5 mph - N/A   Mostly Cloudy